Weather WX

World > North America > United States > New York

Warren County, New York Regional Weather

Lat: 43.51N, Lon: 73.83W
Wx Zone: NYZ042
Feedback

Warren County, NY Regional Weather

Expires:201906160200;;135144
ASUS41 KALY 160110
RWRALY

NEW YORK STATE HOURLY WEATHER ROUNDUP
NATIONAL WEATHER SERVICE ALBANY NY
900 PM EDT SAT JUN 15 2019

NOTE: "FAIR" INDICATES FEW OR NO CLOUDS BELOW 12,000 FEET WITH NO
SIGNIFICANT WEATHER AND/OR NO OBSTRUCTIONS TO VISIBILITY.


NYZ026>034-041>043-087-160200-
NORTH

  
CITY           SKY/WX    TMP DP  RH WIND       PRES   REMARKS
WATERTOWN      LGT RAIN  58  57  97 W13G21    29.86R FOG              
FORT DRUM      NOT AVBL                                               
OGDENSBURG     CLOUDY    61  59  94 SW13      29.78S FOG              
MASSENA        LGT RAIN  61  58  90 SW14G21   29.80R                  
SARANAC LAKE   LGT RAIN  56  55  97 SW9       29.83F FOG              
PLATTSBURGH    LGT RAIN  66  55  67 W13G22    29.80R                  
$$


SKY/WX - Weather  TMP - Temperature  DP - Dew Point  RH - Relative Humidity
WIND - Wind Direction/Speed PRES - Barometric Pressure VSB - Visibility
WCI - Wind Chill Index E13G22 Wind - East Wind 13 mph/Gusts of 22 mph